Regional Weather Roundup
Issued by NWS

Home | Current Version | Previous Version | Graphics & Text | Print | Product List | Glossary On
Versions: 1 2 3 4 5 6 7 8 9 10 11 12 13 14 15 16 17 18 19 20 21 22 23 24 25 26 27 28 29 30 31 32 33 34 35 36 37 38 39 40 41 42 43 44 45 46 47 48 49 50
000
ASUS44 KMEG 040600
RWRTN
TENNESSEE HOURLY STATE WEATHER ROUNDUP
NATIONAL WEATHER SERVICE MEMPHIS TN
100 AM CDT SAT JUL 04 2015

TNZ002-004-019-021-049-052-054-088>092-040700-
WEST TENNESSEE

CITY           SKY/WX    TMP DP  RH WIND       PRES   REMARKS
MEMPHIS INTL   CLOUDY    73  70  90 S5        29.92F
NWS MEMPHIS      N/A     73 N/A N/A MISG        N/A
JACKSON        MOCLDY    72  70  93 SW6       29.91F
DYERSBURG        N/A    N/A N/A N/A MISG        N/A
PARIS          CLEAR     66  66 100 CALM      29.92F
LEXINGTON      CLOUDY    72  70  94 SW5       29.91F
$$

TNZ008-025-027-028-033-062-065-066-040700-
NORTH MIDDLE TENNESSEE

CITY           SKY/WX    TMP DP  RH WIND       PRES   REMARKS
NASHVILLE      MOCLDY    71  69  93 CALM      29.93S
CLARKSVILLE    MOCLDY    71  69  93 SW3       29.91F
COOKEVILLE     CLEAR     68  68 100 CALM      29.95F
CROSSVILLE     CLOUDY    67  64  90 SW3       30.00F
$$

TNZ061-075-076-078-094-096-097-040700-
SOUTH MIDDLE TENNESSEE

CITY           SKY/WX    TMP DP  RH WIND       PRES   REMARKS
FAYETTEVILLE   PTCLDY    68  66  94 S5        29.96F
TULLAHOMA      MOCLDY    68  66  94 S5        29.96F
WINCHESTER     CLOUDY    68  66  94 SE3       29.97F
SHELBYVILLE    CLOUDY    72  72 100 CALM        N/A
$$

TNZ017-018-042-046-047-040700-
NORTHEAST TENNESSEE

CITY           SKY/WX    TMP DP  RH WIND       PRES   REMARKS
TRI CITIES     LGT RAIN  70  65  84 SW17      29.96S
ELIZABETHTON   CLOUDY    70  63  78 W6        29.97S
$$

TNZ012-013-036-069-073-074-040700-
CENTRAL EAST TENNESSEE

CITY           SKY/WX    TMP DP  RH WIND       PRES   REMARKS
KNOXVILLE      MOCLDY    69  65  86 SW10      29.95F
OAK RIDGE      MOCLDY    70  66  87 CALM      29.97F
GATLINBURG     MOCLDY    70  63  78 SW6       29.97F
$$

TNZ083-085-099-040700-
SOUTHEAST TENNESSEE

CITY           SKY/WX    TMP DP  RH WIND       PRES   REMARKS
CHATTANOOGA    HVY RAIN  70  68  93 VRB3      29.98F VSB 1
$$

SKY/WX REPORTED AS FAIR MEANS FEW OR NO CLOUDS BELOW
12 THOUSAND FEET.




USA.gov is the U.S. government's official web portal to all federal, state and local government web resources and services.